Time,TemperatureF,DewpointF,PressureIn,WindDirection,WindDirectionDegrees,WindSpeedMPH,WindSpeedGustMPH,Humidity,HourlyPrecipIn,Conditions,Clouds,dailyrainin,SoftwareType,DateUTC
2013-05-14 00:04:00,51.0,34.0,30.12,WNW,288,2.0,6.0,52,0.00,,,0.00,weatherlink.com 1.10,2013-05-14 04:04:00,
2013-05-14 00:19:00,50.5,35.0,30.13,WNW,288,2.0,5.0,56,0.00,,,0.00,weatherlink.com 1.10,2013-05-14 04:19:00,
2013-05-14 00:34:00,50.3,34.0,30.13,WNW,300,3.0,5.0,54,0.00,,,0.00,weatherlink.com 1.10,2013-05-14 04:34:00,
2013-05-14 00:49:00,50.2,33.0,30.13,NNW,339,3.0,6.0,53,0.00,,,0.00,weatherlink.com 1.10,2013-05-14 04:49:00,
2013-05-14 01:04:00,50.0,34.0,30.13,NNW,329,2.0,6.0,54,0.00,,,0.00,weatherlink.com 1.10,2013-05-14 05:04:00,
2013-05-14 01:19:00,49.8,34.0,30.13,WNW,297,3.0,6.0,55,0.00,,,0.00,weatherlink.com 1.10,2013-05-14 05:19:00,
2013-05-14 01:34:00,49.4,35.0,30.12,WNW,292,5.0,5.0,59,0.00,,,0.00,weatherlink.com 1.10,2013-05-14 05:34:00,
2013-05-14 01:49:00,49.0,37.0,30.14,WNW,293,4.0,6.0,64,0.00,,,0.00,weatherlink.com 1.10,2013-05-14 05:49:00,
2013-05-14 02:04:00,48.6,36.0,30.13,WNW,297,3.0,6.0,63,0.00,,,0.00,weatherlink.com 1.10,2013-05-14 06:04:00,
2013-05-14 02:19:00,48.4,38.0,30.13,WNW,294,5.0,6.0,67,0.00,,,0.00,weatherlink.com 1.10,2013-05-14 06:19:00,
2013-05-14 02:34:00,48.0,38.0,30.13,WNW,288,4.0,6.0,69,0.00,,,0.00,weatherlink.com 1.10,2013-05-14 06:34:00,
2013-05-14 02:50:00,47.7,37.0,30.13,WNW,285,3.0,7.0,67,0.00,,,0.00,weatherlink.com 1.10,2013-05-14 06:50:00,
2013-05-14 03:05:00,46.9,36.0,30.13,West,275,4.0,7.0,65,0.00,,,0.00,weatherlink.com 1.10,2013-05-14 07:05:00,
2013-05-14 03:20:00,46.0,35.0,30.13,West,271,4.0,6.0,66,0.00,,,0.00,weatherlink.com 1.10,2013-05-14 07:20:00,
2013-05-14 03:35:00,45.1,35.0,30.14,WSW,245,4.0,5.0,67,0.00,,,0.00,weatherlink.com 1.10,2013-05-14 07:35:00,
2013-05-14 03:50:00,44.1,34.0,30.14,West,264,3.0,5.0,68,0.00,,,0.00,weatherlink.com 1.10,2013-05-14 07:50:00,
2013-05-14 04:05:00,44.8,34.0,30.14,WNW,293,3.0,5.0,67,0.00,,,0.00,weatherlink.com 1.10,2013-05-14 08:05:00,
2013-05-14 04:20:00,45.1,35.0,30.14,WNW,287,3.0,6.0,69,0.00,,,0.00,weatherlink.com 1.10,2013-05-14 08:20:00,
2013-05-14 04:35:00,45.6,35.0,30.14,NW,304,7.0,9.0,66,0.00,,,0.00,weatherlink.com 1.10,2013-05-14 08:35:00,
2013-05-14 04:50:00,46.1,35.0,30.14,WNW,296,7.0,8.0,66,0.00,,,0.00,weatherlink.com 1.10,2013-05-14 08:50:00,
2013-05-14 05:05:00,46.1,35.0,30.15,WNW,295,6.0,8.0,65,0.00,,,0.00,weatherlink.com 1.10,2013-05-14 09:05:00,
2013-05-14 05:20:00,46.1,34.0,30.15,NW,305,6.0,9.0,64,0.00,,,0.00,weatherlink.com 1.10,2013-05-14 09:20:00,
2013-05-14 05:35:00,45.8,34.0,30.15,WNW,295,6.0,8.0,63,0.00,,,0.00,weatherlink.com 1.10,2013-05-14 09:35:00,
2013-05-14 05:50:00,45.6,35.0,30.15,WNW,296,4.0,9.0,66,0.00,,,0.00,weatherlink.com 1.10,2013-05-14 09:50:00,
2013-05-14 06:05:00,45.7,35.0,30.16,WNW,285,3.0,7.0,66,0.00,,,0.00,weatherlink.com 1.10,2013-05-14 10:05:00,
2013-05-14 06:20:00,46.0,36.0,30.16,WNW,293,4.0,6.0,67,0.00,,,0.00,weatherlink.com 1.10,2013-05-14 10:20:00,
2013-05-14 06:35:00,46.4,36.0,30.17,WNW,291,4.0,6.0,67,0.00,,,0.00,weatherlink.com 1.10,2013-05-14 10:35:00,
2013-05-14 06:50:00,46.9,36.0,30.17,NNW,328,3.0,7.0,65,0.00,,,0.00,weatherlink.com 1.10,2013-05-14 10:50:00,
2013-05-14 07:05:00,47.5,35.0,30.17,NW,320,5.0,11.0,63,0.00,,,0.00,weatherlink.com 1.10,2013-05-14 11:05:00,
2013-05-14 07:20:00,47.9,34.0,30.17,WNW,288,5.0,8.0,60,0.00,,,0.00,weatherlink.com 1.10,2013-05-14 11:20:00,
2013-05-14 07:35:00,47.7,33.0,30.17,NW,305,6.0,8.0,58,0.00,,,0.00,weatherlink.com 1.10,2013-05-14 11:35:00,
2013-05-14 07:50:00,48.1,31.0,30.17,NW,307,5.0,9.0,52,0.00,,,0.00,weatherlink.com 1.10,2013-05-14 11:50:00,
2013-05-14 08:05:00,48.5,30.0,30.17,NW,319,6.0,10.0,50,0.00,,,0.00,weatherlink.com 1.10,2013-05-14 12:05:00,
2013-05-14 08:20:00,48.8,30.0,30.18,NNW,342,6.0,11.0,48,0.00,,,0.00,weatherlink.com 1.10,2013-05-14 12:20:00,
2013-05-14 08:35:00,49.2,31.0,30.17,NNW,344,5.0,8.0,49,0.00,,,0.00,weatherlink.com 1.10,2013-05-14 12:35:00,
2013-05-14 08:50:00,49.5,30.0,30.17,NNE,25,6.0,9.0,48,0.00,,,0.00,weatherlink.com 1.10,2013-05-14 12:50:00,
2013-05-14 09:05:00,49.9,30.0,30.17,NNW,329,2.0,9.0,46,0.00,,,0.00,weatherlink.com 1.10,2013-05-14 13:05:00,
2013-05-14 09:20:00,50.4,30.0,30.17,NW,319,6.0,8.0,45,0.00,,,0.00,weatherlink.com 1.10,2013-05-14 13:20:00,
2013-05-14 09:36:00,50.6,30.0,30.17,NNW,327,11.0,14.0,45,0.00,,,0.00,weatherlink.com 1.10,2013-05-14 13:36:00,
2013-05-14 09:51:00,50.7,28.0,30.17,NNW,338,9.0,18.0,42,0.00,,,0.00,weatherlink.com 1.10,2013-05-14 13:51:00,
2013-05-14 10:06:00,51.2,30.0,30.16,NW,311,7.0,15.0,44,0.00,,,0.00,weatherlink.com 1.10,2013-05-14 14:06:00,
2013-05-14 10:21:00,51.3,30.0,30.16,NNW,339,6.0,13.0,44,0.00,,,0.00,weatherlink.com 1.10,2013-05-14 14:21:00,
2013-05-14 10:36:00,51.6,29.0,30.16,NW,305,8.0,13.0,42,0.00,,,0.00,weatherlink.com 1.10,2013-05-14 14:36:00,
2013-05-14 10:51:00,52.7,30.0,30.16,WNW,285,13.0,14.0,42,0.00,,,0.00,weatherlink.com 1.10,2013-05-14 14:51:00,
2013-05-14 11:06:00,53.0,30.0,30.15,West,276,5.0,15.0,42,0.00,,,0.00,weatherlink.com 1.10,2013-05-14 15:06:00,
2013-05-14 11:21:00,53.9,29.0,30.15,West,281,11.0,13.0,39,0.00,,,0.00,weatherlink.com 1.10,2013-05-14 15:21:00,
2013-05-14 11:36:00,54.7,31.0,30.14,WNW,290,16.0,19.0,40,0.00,,,0.00,weatherlink.com 1.10,2013-05-14 15:36:00,
2013-05-14 11:51:00,54.9,30.0,30.14,WNW,293,22.0,22.0,39,0.00,,,0.00,weatherlink.com 1.10,2013-05-14 15:51:00,
2013-05-14 12:06:00,55.1,30.0,30.14,West,274,12.0,18.0,39,0.00,,,0.00,weatherlink.com 1.10,2013-05-14 16:06:00,
2013-05-14 12:21:00,55.2,30.0,30.13,West,275,12.0,17.0,38,0.00,,,0.00,weatherlink.com 1.10,2013-05-14 16:21:00,
2013-05-14 12:36:00,56.1,30.0,30.13,WNW,297,6.0,18.0,37,0.00,,,0.00,weatherlink.com 1.10,2013-05-14 16:36:00,
2013-05-14 12:51:00,56.6,30.0,30.12,WNW,301,15.0,17.0,37,0.00,,,0.00,weatherlink.com 1.10,2013-05-14 16:51:00,
2013-05-14 13:06:00,57.2,30.0,30.12,West,264,8.0,14.0,35,0.00,,,0.00,weatherlink.com 1.10,2013-05-14 17:06:00,
2013-05-14 13:21:00,56.8,31.0,30.11,West,276,7.0,21.0,37,0.00,,,0.00,weatherlink.com 1.10,2013-05-14 17:21:00,
2013-05-14 13:36:00,57.4,29.0,30.11,WSW,252,5.0,17.0,34,0.00,,,0.00,weatherlink.com 1.10,2013-05-14 17:36:00,
2013-05-14 14:06:00,58.1,29.0,30.09,NW,309,6.0,19.0,33,0.00,,,0.00,weatherlink.com 1.10,2013-05-14 18:06:00,
2013-05-14 14:21:00,58.6,29.0,30.09,WNW,292,9.0,14.0,33,0.00,,,0.00,weatherlink.com 1.10,2013-05-14 18:21:00,
2013-05-14 14:36:00,58.7,29.0,30.09,NNE,26,6.0,14.0,32,0.00,,,0.00,weatherlink.com 1.10,2013-05-14 18:36:00,
2013-05-14 14:51:00,60.1,31.0,30.09,West,278,8.0,12.0,34,0.00,,,0.00,weatherlink.com 1.10,2013-05-14 18:51:00,
2013-05-14 15:06:00,60.3,31.0,30.08,NW,315,6.0,9.0,33,0.00,,,0.00,weatherlink.com 1.10,2013-05-14 19:06:00,
2013-05-14 15:21:00,60.2,31.0,30.08,NE,43,3.0,12.0,33,0.00,,,0.00,weatherlink.com 1.10,2013-05-14 19:21:00,
2013-05-14 15:36:00,61.3,31.0,30.07,West,281,10.0,16.0,32,0.00,,,0.00,weatherlink.com 1.10,2013-05-14 19:36:00,
2013-05-14 15:51:00,61.4,30.0,30.07,West,275,6.0,9.0,31,0.00,,,0.00,weatherlink.com 1.10,2013-05-14 19:51:00,
2013-05-14 16:06:00,61.6,33.0,30.06,WNW,298,6.0,10.0,34,0.00,,,0.00,weatherlink.com 1.10,2013-05-14 20:06:00,
2013-05-14 16:21:00,61.6,31.0,30.06,WNW,285,4.0,11.0,31,0.00,,,0.00,weatherlink.com 1.10,2013-05-14 20:21:00,
2013-05-14 16:36:00,62.1,32.0,30.06,WNW,302,8.0,12.0,32,0.00,,,0.00,weatherlink.com 1.10,2013-05-14 20:36:00,
2013-05-14 16:51:00,61.7,31.0,30.06,WNW,302,10.0,13.0,32,0.00,,,0.00,weatherlink.com 1.10,2013-05-14 20:51:00,
2013-05-14 17:06:00,61.8,31.0,30.06,NNW,341,4.0,8.0,32,0.00,,,0.00,weatherlink.com 1.10,2013-05-14 21:06:00,
2013-05-14 17:21:00,61.7,31.0,30.05,NW,304,5.0,8.0,32,0.00,,,0.00,weatherlink.com 1.10,2013-05-14 21:21:00,
2013-05-14 17:37:00,61.4,29.0,30.04,West,267,1.0,6.0,29,0.00,,,0.00,weatherlink.com 1.10,2013-05-14 21:37:00,
2013-05-14 17:52:00,60.4,39.0,30.04,ESE,118,4.0,9.0,46,0.00,,,0.00,weatherlink.com 1.10,2013-05-14 21:52:00,
2013-05-14 18:07:00,59.8,38.0,30.04,ESE,122,7.0,7.0,44,0.00,,,0.00,weatherlink.com 1.10,2013-05-14 22:07:00,
2013-05-14 18:22:00,59.7,38.0,30.04,South,169,5.0,7.0,45,0.00,,,0.00,weatherlink.com 1.10,2013-05-14 22:22:00,
2013-05-14 18:37:00,59.5,39.0,30.05,SE,145,5.0,7.0,46,0.00,,,0.00,weatherlink.com 1.10,2013-05-14 22:37:00,
2013-05-14 18:52:00,59.5,38.0,30.05,SSE,148,2.0,3.0,45,0.00,,,0.00,weatherlink.com 1.10,2013-05-14 22:52:00,
2013-05-14 19:07:00,59.5,40.0,30.05,SSW,197,1.0,4.0,48,0.00,,,0.00,weatherlink.com 1.10,2013-05-14 23:07:00,
2013-05-14 19:22:00,59.5,41.0,30.04,SE,139,2.0,4.0,50,0.00,,,0.00,weatherlink.com 1.10,2013-05-14 23:22:00,
2013-05-14 19:37:00,59.5,41.0,30.04,SSE,148,2.0,4.0,50,0.00,,,0.00,weatherlink.com 1.10,2013-05-14 23:37:00,
2013-05-14 19:52:00,59.4,42.0,30.04,ESE,123,3.0,4.0,52,0.00,,,0.00,weatherlink.com 1.10,2013-05-14 23:52:00,
2013-05-14 20:07:00,59.3,41.0,30.03,SSE,165,1.0,4.0,51,0.00,,,0.00,weatherlink.com 1.10,2013-05-15 00:07:00,
2013-05-14 20:22:00,59.2,40.0,30.03,South,181,1.0,5.0,50,0.00,,,0.00,weatherlink.com 1.10,2013-05-15 00:22:00,
2013-05-14 20:37:00,59.2,40.0,30.03,South,170,2.0,7.0,50,0.00,,,0.00,weatherlink.com 1.10,2013-05-15 00:37:00,
2013-05-14 20:52:00,59.1,42.0,30.03,SSE,160,3.0,5.0,53,0.00,,,0.00,weatherlink.com 1.10,2013-05-15 00:52:00,
2013-05-14 21:07:00,59.0,42.0,30.04,South,191,1.0,5.0,54,0.00,,,0.00,weatherlink.com 1.10,2013-05-15 01:07:00,
2013-05-14 21:22:00,58.8,43.0,30.05,SE,130,1.0,3.0,56,0.00,,,0.00,weatherlink.com 1.10,2013-05-15 01:22:00,
2013-05-14 21:37:00,58.9,43.0,30.05,South,184,2.0,4.0,57,0.00,,,0.00,weatherlink.com 1.10,2013-05-15 01:37:00,
2013-05-14 21:52:00,58.9,43.0,30.05,ESE,117,3.0,4.0,55,0.00,,,0.00,weatherlink.com 1.10,2013-05-15 01:52:00,
2013-05-14 22:07:00,59.5,42.0,30.06,SE,127,4.0,6.0,53,0.00,,,0.00,weatherlink.com 1.10,2013-05-15 02:07:00,
2013-05-14 22:22:00,59.9,43.0,30.07,SE,141,8.0,10.0,55,0.00,,,0.00,weatherlink.com 1.10,2013-05-15 02:22:00,
2013-05-14 22:37:00,59.6,46.0,30.05,SSW,211,5.0,13.0,62,0.00,,,0.00,weatherlink.com 1.10,2013-05-15 02:37:00,
2013-05-14 22:52:00,59.6,46.0,30.05,SE,124,9.0,12.0,62,0.00,,,0.00,weatherlink.com 1.10,2013-05-15 02:52:00,
2013-05-14 23:07:00,59.6,48.0,30.04,ESE,116,9.0,10.0,65,0.00,,,0.00,weatherlink.com 1.10,2013-05-15 03:07:00,
2013-05-14 23:22:00,59.5,48.0,30.04,SE,128,5.0,13.0,65,0.00,,,0.00,weatherlink.com 1.10,2013-05-15 03:22:00,
2013-05-14 23:37:00,59.5,48.0,30.04,SE,132,7.0,12.0,67,0.00,,,0.00,weatherlink.com 1.10,2013-05-15 03:37:00,
2013-05-14 23:52:00,59.5,49.0,30.03,SSE,165,5.0,11.0,69,0.00,,,0.00,weatherlink.com 1.10,2013-05-15 03:52:00,